Talkeetna, AK

3:41 AM AKDT on April 29, 2017 (GMT -0800)
Talkeetna

Weather History for PATK - September, 2013

Change the Weather History Date:

Saturday, September 28, 2013

  Actual Average Record
Temperature  
Mean Temperature 46 °F -  
Max Temperature 57 °F 50 °F 62 °F (1984)
Min Temperature 37 °F 32 °F 17 °F (1956)
Degree Days  
Heating Degree Days 19    
Moisture  
Dew Point 32 °F    
Average Humidity 60    
Maximum Humidity 93    
Minimum Humidity 23    
Precipitation  
Precipitation 0.00 in - - ()
Sea Level Pressure  
Sea Level Pressure 29.13 in    
Wind  
Wind Speed 3 mph (NNE)    
Max Wind Speed 14 mph    
Max Gust Speed 23 mph    
Visibility 10 miles    
Events      
Averages and records for this station are not official NWS values.
T = Trace of Precipitation, MM = Missing Value Source: NWS Daily Summary

Daily Weather History Graph

Daily Weather History Graph

Search for Another Location

Airport or City:

Trip Planner

Search our weather history database for the weather conditions in past years. The results will help you decide how hot, cold, wet, or windy it might be!

Date:

Astronomy

Sep. 28, 2013 Rise Set
Actual Time 8:00 AM AKDT 7:39 PM AKDT
Civil Twilight 7:16 AM AKDT 8:23 PM AKDT
Nautical Twilight 6:23 AM AKDT 9:16 PM AKDT
Astronomical Twilight 5:25 AM AKDT 10:13 PM AKDT
Moon 12:22 AM AKDT (9/28) 5:29 PM AKDT (9/28)
Length of Visible Light 13h 07m
Length of Day
11h 38m
Waning Crescent, 34% of the Moon is Illuminated
Sep 28
Waning Crescent
Oct 4
New
Oct 11
First Quarter
Oct 18
Full
Oct 26
Last Quarter

Hourly Weather History & Observations

Time (AKDT) Temp. Windchill Dew Point Humidity Pressure Visibility Wind Dir Wind Speed Gust Speed Precip Events Conditions
12:53 AM 39.9 °F - 37.9 °F 93% 29.15 in 10.0 mi Calm Calm - N/A   Clear
1:53 AM 37.9 °F - 36.0 °F 93% 29.15 in 10.0 mi Calm Calm - N/A   Clear
2:53 AM 37.9 °F 35.5 °F 35.1 °F 89% 29.16 in 10.0 mi NE 3.5 mph - N/A   Scattered Clouds
3:53 AM 37.0 °F - 35.1 °F 93% 29.16 in 10.0 mi Calm Calm - N/A   Clear
4:53 AM 37.0 °F - 35.1 °F 93% 29.16 in 10.0 mi Calm Calm - N/A   Overcast
5:53 AM 37.9 °F - 35.1 °F 89% 29.16 in 10.0 mi Calm Calm - N/A   Overcast
6:53 AM 39.0 °F - 35.1 °F 86% 29.15 in 10.0 mi Calm Calm - N/A   Overcast
7:53 AM 37.9 °F - 35.1 °F 89% 29.15 in 10.0 mi Calm Calm - N/A   Overcast
8:53 AM 37.9 °F - 34.0 °F 86% 29.15 in 10.0 mi Calm Calm - N/A   Overcast
9:53 AM 39.9 °F - 35.1 °F 83% 29.14 in 10.0 mi Calm Calm - N/A   Mostly Cloudy
10:53 AM 46.0 °F 44.8 °F 33.1 °F 61% 29.13 in 10.0 mi NNW 3.5 mph - N/A   Overcast
11:53 AM 50.0 °F - 34.0 °F 54% 29.12 in 10.0 mi Calm Calm - N/A   Partly Cloudy
12:53 PM 57.0 °F - 30.9 °F 37% 29.11 in 10.0 mi NNE 6.9 mph - N/A   Partly Cloudy
1:53 PM 57.0 °F - 28.9 °F 34% 29.09 in 10.0 mi North 8.1 mph 16.1 mph N/A   Partly Cloudy
2:53 PM 57.0 °F - 27.0 °F 32% 29.08 in 10.0 mi NNE 12.7 mph 21.9 mph N/A   Partly Cloudy
3:53 PM 55.9 °F - 28.9 °F 36% 29.08 in 10.0 mi North 10.4 mph 18.4 mph N/A   Clear
4:53 PM 55.0 °F - 28.0 °F 35% 29.09 in 10.0 mi North 9.2 mph 18.4 mph N/A   Clear
5:53 PM 54.0 °F - 28.0 °F 37% 29.10 in 10.0 mi NNE 13.8 mph 23.0 mph N/A   Clear
6:53 PM 52.0 °F - 28.0 °F 40% 29.11 in 10.0 mi NNE 8.1 mph - N/A   Clear
7:53 PM 51.1 °F - 28.0 °F 41% 29.13 in 10.0 mi North 6.9 mph - N/A   Overcast
8:53 PM 50.0 °F - 28.0 °F 43% 29.14 in 10.0 mi Variable 6.9 mph 16.1 mph N/A   Partly Cloudy
9:53 PM 48.9 °F - 27.0 °F 43% 29.16 in 10.0 mi NNE 6.9 mph - N/A   Overcast
10:53 PM 48.9 °F - 27.0 °F 43% 29.17 in 10.0 mi North 6.9 mph - N/A   Scattered Clouds
11:53 PM 48.0 °F - 26.1 °F 42% 29.18 in 10.0 mi Variable 4.6 mph - N/A   Partly Cloudy